Weather observations for the past three days for
Juneau, Juneau International Airport
Metric (Imperial)
Date Time (akdt) Wind (kph) Vis. (km) Weather Sky Cond. Temperature (ºC) Relative Humidity Wind Chill (°C) Heat Index (°C) Pressure Precipitation (cm)
Air Dwpt 6 hour altimeter (cm) sea level (mb) 1 hr 3 hr 6 hr
Max. Min.
18 04:53 Calm 16.09 Partly Cloudy FEW015 FEW040 SCT230 8.3 6.7 90% 76.3 1017.4
18 03:53 Calm 16.09 A Few Clouds FEW018 FEW035 FEW230 7.8 6.1 14.4 7.8 89% 76.3 1017.1
18 02:53 SW 7 16.09 A Few Clouds FEW045 FEW250 10 7.2 83% 9 76.28 1017.0
18 01:53 NW 11 16.09 Partly Cloudy FEW045 SCT250 11.7 7.8 77% 76.28 1016.9
18 00:53 NW 13 16.09 Mostly Cloudy FEW045 BKN250 12.2 7.8 75% 76.25 1016.7
17 23:53 NW 11 16.09 Mostly Cloudy SCT044 BKN250 13.3 7.8 70% 76.25 1016.5
17 22:53 NW 19 16.09 Mostly Cloudy BKN043 BKN250 13.9 7.8 67% 76.23 1016.1
17 21:53 NW 13 16.09 Partly Cloudy FEW045 FEW090 SCT250 14.4 8.3 19.4 14.4 67% 76.17 1015.7
17 20:53 NW 15 16.09 Partly Cloudy FEW045 FEW120 SCT250 16.1 8.3 60% 76.15 1015.4
17 19:53 NW 17 16.09 Partly Cloudy FEW044 FEW180 SCT250 17.2 8.3 56% 76.15 1015.1
17 18:53 W 19 16.09 Partly Cloudy FEW044 FEW180 SCT250 17.8 8.3 54% 76.15 1015.1
17 17:53 W 19 16.09 Partly Cloudy FEW044 FEW180 SCT260 18.3 8.9 54% 76.15 1015.1
17 16:53 W 17 16.09 Partly Cloudy FEW044 FEW180 SCT260 18.9 8.9 52% 76.15 1015.3
17 15:53 W 22 16.09 Mostly Cloudy FEW036 FEW180 BKN270 18.3 8.9 18.3 14.4 54% 76.17 1015.7
17 14:53 SW 22 16.09 Mostly Cloudy FEW035 FEW180 BKN270 17.8 8.3 54% 76.23 1016.1
17 13:53 W 19 16.09 Partly Cloudy FEW034 FEW140 SCT260 17.2 8.3 56% 76.25 1016.4
17 12:53 W 22 16.09 Partly Cloudy FEW034 FEW180 SCT270 16.7 8.3 58% 76.25 1016.6
17 11:53 W 19 16.09 Mostly Cloudy FEW034 FEW180 BKN260 16.1 8.9 63% 76.28 1016.9
17 10:53 SW 20 16.09 Mostly Cloudy FEW029 FEW170 BKN260 15 8.3 64% 76.28 1017.0
17 09:53 SW 19 16.09 Partly Cloudy FEW028 FEW035 SCT170 SCT260 13.9 7.8 14.4 11.1 67% 76.3 1017.2
17 08:53 Vrbl 9 16.09 Mostly Cloudy FEW016 FEW027 SCT170 BKN260 13.9 7.8 67% 76.33 1017.5
17 07:53 NW 11 16.09 Mostly Cloudy SCT018 SCT150 BKN260 12.2 7.8 75% 76.33 1017.6
17 06:53 NW 9 16.09 Partly Cloudy FEW015 SCT020 SCT150 12.2 7.8 75% 76.33 1017.4
17 05:53 NW 15 16.09 Mostly Cloudy FEW016 BKN150 11.1 7.8 80% 76.3 1017.2
17 04:53 NW 13 16.09 Mostly Cloudy FEW016 SCT130 BKN150 11.7 7.8 77% 76.3 1017.1
17 03:53 NW 13 16.09 Mostly Cloudy FEW015 SCT140 BKN160 11.7 7.8 16.7 11.7 77% 76.3 1017.1
17 02:53 NW 15 16.09 Mostly Cloudy FEW028 SCT140 BKN160 12.2 7.8 75% 76.28 1017.0
17 01:53 NW 13 16.09 Mostly Cloudy FEW120 BKN140 12.8 7.8 72% 76.28 1016.8
17 00:53 E 6 16.09 Mostly Cloudy FEW130 SCT140 BKN160 12.8 8.3 74% 76.25 1016.5
16 23:53 W 15 16.09 Mostly Cloudy SCT140 BKN300 13.3 8.3 72% 76.25 1016.4
16 22:53 Vrbl 7 16.09 Mostly Cloudy FEW120 SCT150 BKN300 15 7.2 60% 76.23 1016.2
16 21:53 W 11 16.09 Mostly Cloudy FEW110 SCT120 SCT190 BKN300 16.7 7.2 22.2 16.7 54% 76.23 1016.1
16 20:53 NW 13 16.09 Mostly Cloudy SCT120 SCT190 BKN300 19.4 7.2 45% 76.2 1015.8
16 19:53 NW 9 16.09 Mostly Cloudy FEW130 SCT190 BKN300 20.6 7.8 44% 76.17 1015.6
16 18:53 NW 13 16.09 Mostly Cloudy FEW070 FEW140 SCT300 BKN350 21.1 7.8 42% 76.2 1015.7
16 17:53 W 17 16.09 Partly Cloudy FEW065 FEW120 FEW300 SCT350 21.7 6.7 38% 76.2 1015.9
16 16:53 W 15 16.09 Partly Cloudy FEW065 FEW120 FEW300 SCT350 22.2 7.2 38% 76.2 1016.0
16 15:53 NW 15 16.09 A Few Clouds FEW060 FEW100 FEW220 FEW300 21.7 7.2 22.2 15.6 39% 76.25 1016.6
16 14:53 W 13 16.09 A Few Clouds FEW055 FEW100 FEW220 21.7 8.9 44% 76.3 1017.1
16 13:53 W 15 16.09 A Few Clouds FEW055 FEW100 FEW220 20 8.3 47% 76.33 1017.4
16 12:53 W 11 16.09 A Few Clouds FEW065 FEW100 FEW220 19.4 8.3 49% 76.35 1017.8
16 11:53 W 9 16.09 Mostly Cloudy FEW034 SCT080 SCT100 BKN220 16.7 8.9 60% 76.38 1018.2
16 10:53 SW 13 16.09 Mostly Cloudy FEW070 SCT110 BKN220 16.7 8.9 60% 76.4 1018.6
16 09:53 Calm 16.09 Mostly Cloudy FEW080 SCT160 BKN220 16.1 8.3 16.1 7.2 60% 76.4 1018.6
16 08:53 E 9 16.09 Mostly Cloudy FEW080 SCT150 BKN220 14.4 9.4 72% 76.4 1018.7
16 07:53 E 6 16.09 Mostly Cloudy FEW070 SCT140 BKN220 12.8 8.3 74% 76.43 1019.0
16 06:53 E 6 16.09 Mostly Cloudy FEW070 SCT130 BKN150 BKN210 11.1 8.3 83% 76.43 1018.8
16 05:53 E 6 16.09 Mostly Cloudy FEW001 FEW070 BKN180 BKN250 7.2 6.1 93% 76.4 1018.6
16 04:53 Calm 16.09 Mostly Cloudy FEW001 FEW070 BKN180 7.8 6.1 89% 76.38 1018.4
16 03:53 Calm 16.09 A Few Clouds FEW002 FEW080 FEW140 8.9 7.2 15.6 7.2 89% 76.38 1018.2
16 02:53 Calm 16.09 A Few Clouds FEW001 FEW090 FEW140 7.8 6.7 93% 76.38 1018.1
16 01:53 Calm 16.09 Partly Cloudy FEW090 SCT130 10 7.2 83% 76.35 1017.8
16 00:53 E 7 16.09 Mostly Cloudy SCT090 BKN140 10 7.8 86% 9 76.3 1017.3
15 23:53 E 6 16.09 Mostly Cloudy SCT090 BKN130 11.7 8.3 80% 76.28 1016.9
15 22:53 Calm 16.09 Partly Cloudy SCT090 SCT150 13.9 10 78% 76.25 1016.6
15 21:53 Calm 16.09 Partly Cloudy SCT100 SCT120 15 9.4 21.1 15 69% 76.23 1016.1
15 20:53 NE 6 16.09 A Few Clouds FEW100 17.8 8.3 54% 76.17 1015.5
15 19:53 Vrbl 7 16.09 A Few Clouds FEW100 19.4 7.2 45% 76.15 1015.2
15 18:53 SW 17 16.09 A Few Clouds FEW100 20.6 7.8 44% 76.15 1015.0
15 17:53 SW 20 16.09 A Few Clouds FEW050 FEW220 21.1 7.8 42% 76.12 1014.9
15 16:53 SW 24 16.09 A Few Clouds FEW060 FEW120 FEW220 20.6 8.3 45% 76.12 1015.0
15 14:53 SW 17 16.09 A Few Clouds FEW055 FEW100 FEW220 20.6 9.4 49% 76.15 1015.3
15 13:53 W 19 16.09 A Few Clouds FEW055 FEW100 FEW220 18.9 9.4 54% 76.2 1015.9
15 12:53 SW 19 16.09 A Few Clouds FEW045 FEW100 FEW220 17.2 9.4 60% 76.23 1016.2
15 11:53 SW 19 16.09 A Few Clouds FEW120 FEW220 15.6 8.9 65% 76.25 1016.5
15 10:53 SW 20 16.09 Partly Cloudy FEW020 FEW035 FEW120 SCT220 13.9 7.8 67% 76.28 1016.7
15 09:53 W 15 16.09 Partly Cloudy FEW014 FEW030 SCT120 SCT200 13.3 8.3 13.3 3.9 72% 76.3 1017.1
15 08:53 SW 7 16.09 Mostly Cloudy FEW011 SCT029 SCT110 BKN200 11.7 7.8 77% 76.3 1017.3
15 07:53 W 7 16.09 Mostly Cloudy FEW010 SCT027 SCT100 BKN200 10.6 7.8 83% 76.33 1017.4
15 06:53 Calm 16.09 Mostly Cloudy FEW011 FEW027 SCT100 BKN200 10 7.2 83% 76.33 1017.7
15 05:53 Calm 16.09 Mostly Cloudy FEW007 FEW011 SCT095 BKN200 7.8 6.1 89% 76.35 1018.0
Date Time (akdt) Wind (kph) Vis. (km) Weather Sky Cond. Air Dwpt Max. Min. Relative Humidity Wind Chill (°C) Heat Index (°C) altimeter (cm) sea level (mb) 1 hr 3 hr 6 hr
6 hour
Temperature (ºC) Pressure Precipitation (cm)